Moline, IL
on Sunday, September 8, 2013

Sunday
Previous Day Next Day
Daily Summary
 ActualAverageRecord
Temperature
Mean Temperature °F 69°F  
Max Temperature 87°F 80°F 98°F (1922)
Min Temperature 71°F 57°F 38°F (1986)
Degree Days
Heating Degree Days 0 1  
Month to date heating degree days 0 8  
Since 1 July heating degree days 11 16  
Cooling Degree Days 14 5  
Month to date cooling degree days 69 46  
Year to date cooling degree days 883 929  
Growing Degree Days29 (Base °F )  
Moisture
Dew Point 68°F   
Average Humidity 72    
Maximum Humidity 93    
Minimum Humidity 51    
Precipitation
Precipitation 0.00 in 0.11 in 1.67 in (1948)
Month to date precipitation 0.00 0.92  
Year to date precipitation 32.61 28.08  
Snow
Snow 0.00 in 0.00 in in ()
Month to date snowfall 0.0 0.0  
Since 1 July snowfall 0.0 0.0  
Since 1 September snowfall 0.0 0.0  
Snow Depth 0.00 in   
Wind
Wind Speed 11 mph   
Max Wind Speed 20 mph   
Max Gust Speed 24 mph   
Visibility 9 miles   
Events     

Key: T is trace of precipitation, MM is missing value
Source: NWS Daily Summary
Time(CDT)TemperatureDew PointHumidity Pressure Visibility Wind DirectionWind SpeedGust SpeedPrecipitationEvents Conditions
12:52 AM 75.9°F 68.0°F 76% 29.88 in 10.0 miles ESE 3.5 mph - N/A   Clear
1:52 AM 75.0°F 68.0°F 79% 29.87 in 10.0 miles East 8.1 mph - N/A   Clear
2:52 AM 75.0°F 66.9°F 76% 29.87 in 10.0 miles East 6.9 mph - N/A   Mostly Cloudy
3:52 AM 75.0°F 66.9°F 76% 29.87 in 10.0 miles East 10.4 mph - N/A   Partly Cloudy
4:52 AM 73.0°F 66.9°F 81% 29.90 in 10.0 miles East 10.4 mph - N/A   Scattered Clouds
5:52 AM 73.0°F 66.0°F 79% 29.91 in 10.0 miles ESE 8.1 mph - N/A   Clear
6:52 AM 73.0°F 66.0°F 79% 29.94 in 9.0 miles East 16.1 mph 21.9 mph N/A   Clear
7:47 AM 71.6°F 66.2°F 83% 29.97 in 7.0 miles East 18.4 mph - N/A   Overcast
7:52 AM 72.0°F 66.9°F 84% 29.96 in 7.0 miles East 19.6 mph 23.0 mph N/A   Overcast
8:52 AM 73.0°F 66.9°F 81% 29.97 in 6.0 miles East 13.8 mph - N/A   Haze
9:52 AM 75.0°F 66.9°F 76% 29.97 in 7.0 miles East 16.1 mph 24.2 mph N/A   Mostly Cloudy
10:01 AM 75.2°F 68.0°F 78% 29.98 in 7.0 miles East 15.0 mph - N/A   Mostly Cloudy
10:24 AM 78.8°F 68.0°F 69% 29.99 in 8.0 miles ESE 13.8 mph - N/A   Partly Cloudy
10:52 AM 79.0°F 68.0°F 69% 29.98 in 9.0 miles East 12.7 mph - N/A   Scattered Clouds
11:52 AM 82.9°F 68.0°F 60% 29.96 in 10.0 miles ENE 13.8 mph 24.2 mph N/A   Partly Cloudy
12:52 PM 84.0°F 68.0°F 58% 29.94 in 10.0 miles East 13.8 mph - N/A   Scattered Clouds
1:52 PM 86.0°F 66.9°F 53% 29.93 in 10.0 miles East 12.7 mph - N/A   Clear
2:52 PM 84.9°F 68.0°F 57% 29.91 in 10.0 miles East 13.8 mph - N/A   Scattered Clouds
3:52 PM 86.0°F 68.0°F 55% 29.88 in 10.0 miles East 17.3 mph - N/A   Partly Cloudy
4:52 PM 84.0°F 68.0°F 58% 29.89 in 10.0 miles East 11.5 mph - N/A   Mostly Cloudy
5:52 PM 82.9°F 69.1°F 63% 29.88 in 10.0 miles ESE 11.5 mph - N/A   Scattered Clouds
6:52 PM 81.0°F 69.1°F 67% 29.88 in 9.0 miles ESE 6.9 mph - N/A   Mostly Cloudy
7:52 PM 79.0°F 70.0°F 74% 29.89 in 9.0 miles ESE 5.8 mph - N/A   Overcast
8:52 PM 78.1°F 70.0°F 76% 29.89 in 9.0 miles East 5.8 mph - N/A   Scattered Clouds
9:52 PM 75.0°F 70.0°F 84% 29.89 in 7.0 miles East 8.1 mph - N/A   Clear
10:52 PM 73.9°F 69.1°F 85% 29.89 in 5.0 miles East 4.6 mph - N/A   Haze
11:52 PM 72.0°F 69.1°F 91% 29.89 in 5.0 miles East 4.6 mph - N/A   Clear
Astronomy
Sunrise:06:35 AM (CDT) Moon Rise:09:56 AM (CDT)9/8
Sunset:07:22 PM (CDT) Moon Set:08:55 PM (CDT)9/8
Moon Phase
Sep. 08 Sep. 12 Sep. 19 Sep. 27 Oct. 05

Copyright © 2017 The Weather Underground, Inc.















  Today is Tuesday, Nov. 22, the 327th day of 2016. There are 39 days left in the year.
1866 -- 150 years ago: Free luncheon is served at Phil Hein's Saloon every morning at 10 o'clock.
1891 -- 125 years ago: Bige Bickford was injured as he was coupling cars in the Rock Island Lines yard.
1916 -- 100 years ago: Clarence Granlund was elected president of the Lyceum at Augustana College.
1941 -- 75 years ago: Alice Schall, teacher at Grant School, supervised packing of Thanksgiving boxes for needy families.
1966 -- 50 years ago: The Rev. Lowell Campbell, pastor of the Milan Presbyterian Church, led the members of the congregation in a ground-breaking ceremony yesterday at the site of the new church one mile south of Andalusia Road on U.S. 67. The building will cost $285,000 and will be completed next fall.
1991 -- 25 years ago: Construction of a 200-room, $13.5 million hotel on the east end of the Moline civic center site will begin next spring, according to an agreement that was to be considered this morning by the Quad City Civic Center Authority.